Miscellaneous Local Product
Issued by NWS North Platte, NE

Home | Current Version | Previous Version | Text Only | Print | Product List | Glossary On
Versions: 1 2 3 4 5 6 7 8 9 10 11 12 13 14 15 16 17 18 19 20 21 22 23 24 25 26 27 28 29 30 31 32 33 34 35 36 37 38 39 40 41 42 43 44 45 46 47 48 49 50
000
AXUS43 KLBF 310310
MISLBF


WESTERN AND NORTH CENTRAL NEBRASKA HOURLY WEATHER ROUNDUP
NATIONAL WEATHER SERVICE NORTH PLATTE NE
900 PM CST FRI JAN 30 2015

***STATIONS NOT REPORTING VARIABLES SUCH AS SKY/WEATHER OR
PRESSURE ARE PROVIDED BY THE NEBRASKA DEPARTMENT OF
ROADS...RAWS...AND APRS NETWORKS...AND ARE NOT UNDER
NATIONAL WEATHER SERVICE QUALITY CONTROL***

...OBSERVATIONS IN AND NEAR THE EASTERN PANHANDLE OF NEBRASKA...

CITY           SKY/WX    TMP DP  RH WIND       PRES   REMARKS
PINE RIDGE     CLOUDY    29  22  75 CALM      30.13S
CHADRON        CLOUDY    31  25  78 W3        30.13S
ALLIANCE       CLOUDY    32  27  81 N7        30.08F WCI  26
SIDNEY         CLOUDY    36  26  67 N8        30.07F WCI  30
WHITECLAY        N/A     27  22  80 CALM        N/A
CRESCENT LAKE    N/A     35  27  71 N7          N/A  WCI  29
LISCO            N/A     33  25  73 CALM        N/A
LEWELLEN         N/A     40  29  65 SE7         N/A
$$

...OBSERVATIONS IN NORTH CENTRAL NEBRASKA...

CITY           SKY/WX    TMP DP  RH WIND       PRES   REMARKS
VALENTINE      CLOUDY    33  27  78 S6        30.13F WCI  28
THEDFORD       CLOUDY    38  29  71 S5        30.14S WCI  34
AINSWORTH      CLOUDY    36  27  71 S8        30.13S WCI  29
O`NEILL        CLOUDY    36  28  71 S6        30.16F WCI  32
ORD            CLOUDY    39  26  59 S9        30.17F WCI  33
BROKEN BOW     CLOUDY    39  28  64 S6        30.16F WCI  35
BROWNLEE         N/A     38  28  66 S7          N/A  WCI  32
VALENTINE NWR    N/A     36  27  69 S6          N/A  WCI  31
SPRINGVIEW       N/A     35  26  69 CALM        N/A
BREWSTER         N/A     35  27  72 CALM        N/A
ROSE             N/A     36  30  78 SE6         N/A  WCI  31
NEWPORT          N/A     36  29  74 S7          N/A  WCI  31
SARGENT          N/A     35  27  71 CALM        N/A
COMSTOCK         N/A     43  28  54 S14         N/A
EWING            N/A     35  28  76 SW3         N/A
$$

...OBSERVATIONS IN SOUTHWEST NEBRASKA AND FAR NORTHEAST COLORADO...

CITY           SKY/WX    TMP DP  RH WIND       PRES   REMARKS
WRAY           CLOUDY    38  33  82 S10       30.09F WCI  31
IMPERIAL       CLOUDY    39  31  72 S16       30.11F WCI  30
OGALLALA       CLOUDY    39  31  73 CALM      30.10F
NORTH PLATTE   CLOUDY    39  29  67 S9        30.14F WCI  33
MCCOOK         CLOUDY    39  34  82 S8G17     30.19F WCI  33
LEXINGTON      CLOUDY    41  32  70 S20       30.20S
BRADY            N/A     39  31  72 CALM        N/A
GOTHENBURG       N/A     40  30  67 S8          N/A  WCI  34
CALLAWAY         N/A     38  31  74 S18         N/A  WCI  28
$$

...NORTH PLATTE AREA...

CITY           SKY/WX    TMP DP  RH WIND       PRES   REMARKS
AIRPORT        CLOUDY    39  29  67 S9        30.14F WCI  33
DOWNTOWN         N/A     39  30  71 S6          N/A  WCI  35
$$

...SOME WEATHER OBSERVATIONS FROM AROUND THE REGION...

CITY           SKY/WX    TMP DP  RH WIND       PRES   REMARKS
DENVER         CLOUDY    39  27  62 NW6       30.08S WCI  35
LARAMIE        CLOUDY    32  26  78 SE6       30.07F WCI  26
CHEYENNE       CLOUDY    35  19  52 N9        30.07F WCI  28
SCOTTSBLUFF    CLOUDY    33  28  81 N7        30.09F WCI  27
RAPID CITY     CLOUDY    34  23  64 N10       30.13F WCI  26
PIERRE         PTCLDY    27  21  78 N3        30.13F
WINNER         FAIR      39  25  57 SW5       30.13F
SIOUX FALLS    PTCLDY    34  27  75 SW10      30.16F WCI  26
OMAHA          CLOUDY    33  25  72 SE9       30.29S WCI  25
GRAND ISLAND   CLOUDY    40  26  57 S13       30.23F WCI  32
KANSAS CITY    CLOUDY    32  22  66 S6        30.36S WCI  26
WICHITA        CLOUDY    40  25  55 S3        30.33F
HAYS           CLOUDY    37  27  65 SW14      30.27F WCI  29
LIBERAL        CLOUDY    36  28  75 SE8       30.25F WCI  29
GOODLAND       CLOUDY    34  32  92 S18       30.13F WCI  23
$$



USA.gov is the U.S. government's official web portal to all federal, state and local government web resources and services.